Find Starlink 34136

NORAD ID: 64112 Int'l Des: 2025-110 Owner: SPXS Country: US Constellation: starlink operational
LEOCIRCULAR

現在のビュー

3D地球を読み込み中...

About Starlink 34136

Starlink 34136 (NORAD 64112) is a starlink constellation satellite (v2 mini) launched May 23, 2025 by SPXS of US. It operates in LEO, CIRCULAR orbit with a mass of 575.00 kg.

次回通過

Passes for default location (London). Set your location on the main map for personalized predictions.

高度履歴

Loading altitude history...

軌道要素

1 64112U 25110S 26236.63120247 .00022601 00000-0 73743-3 0 9995
2 64112 53.1607 325.3762 0001420 77.5937 282.5224 15.31718551 71618
Epoch: Aug 24, 2026 • Age: 20 hours

現在のステータス

高度 470.4 km
遠地点 / 近地点 N/A
速度 7.63 km/s
衛星直下点 10.01°N, 178.19°W
打ち上げ日 May 23, 2025
運用期間 1.2 years
タイプ internet

技術仕様

分類 Payload
質量 575.00 kg
乾燥質量 530.00 kg
総質量 575.00 kg
長さ 0.30 m
直径 4.10 m
スパン 29.00 m
形状 Box + pan
製造者 SPXS
バスタイプ Starlink V2MO
フェーズステータス In Orbit
所有者/国 SPXS/US

Most Searched